Regional Weather Roundup
Issued by NWS

Home | Current Version | Previous Version | Graphics & Text | Print | Product List | Glossary On
Versions: 1 2 3 4 5 6 7 8 9 10 11 12 13 14 15 16 17 18 19 20 21 22 23 24 25 26 27 28 29 30 31 32 33 34 35 36 37 38 39 40 41 42 43 44 45 46 47 48 49 50
000
ASUS43 KBIS 031310
RWRND

NORTH DAKOTA REGIONAL WEATHER ROUNDUP
NATIONAL WEATHER SERVICE BISMARCK ND
700 AM CST TUE MAR 03 2015

NOTE: "FAIR" INDICATES FEW OR NO CLOUDS BELOW 12,000 FEET WITH NO
SIGNIFICANT WEATHER AND/OR OBSTRUCTIONS TO VISIBILITY.


NDZ001>003-009>011-017-031400-
NORTHWEST NORTH DAKOTA

CITY           SKY/WX    TMP DP  RH WIND       PRES   REMARKS
WILLISTON      CLOUDY     3  -3  76 NW9       30.09R WCI -12
MINOT          CLEAR      1  -9  62 NW22      29.97R WCI -21
MINOT AFB      CLEAR      0  -8  71 NW21      29.97R WCI -23
$$

NDZ018>021-031>035-040>046-031400-
SOUTHWEST NORTH DAKOTA

CITY           SKY/WX    TMP DP  RH WIND       PRES   REMARKS
BISMARCK       MOCLDY     8  -1  66 NW17G25   29.98R WCI -10
DICKINSON      MOCLDY     4  -7  60 NW23G32   29.97R WCI -18
GARRISON         N/A      2  -5  72 NW21G32   29.98R WCI -20
HETTINGER ARPT CLOUDY     8  -2  63 NW26G38   29.98R WCI -14
$$

NDZ004>008-012>016-024-026-027-054-031400-
NORTHEAST NORTH DAKOTA

CITY           SKY/WX    TMP DP  RH WIND       PRES   REMARKS
GRAND FORKS    CLOUDY    15   8  73 NW21G29   29.80S WCI  -2
GRND FRKS AFB  FLURRIES  13   5  69 N16G31    29.81S WCI  -3
DEVILS LAKE    CLOUDY     7  -2  66 NW22G28   29.86R WCI -14
$$

NDZ022-023-025-028>030-036>039-047>053-031400-
SOUTHEAST NORTH DAKOTA

CITY           SKY/WX    TMP DP  RH WIND       PRES   REMARKS
FARGO          LGT SNOW  19  13  77 NW25      29.76R WCI   1
JAMESTOWN      CLOUDY    10   3  73 NW25G38   29.83R WCI -11
$$




USA.gov is the U.S. government's official web portal to all federal, state and local government web resources and services.